N7QNM-10 Weather Reports


Display with metric or nautical units.
time (UTC)temp
F
wind
direction
speed
MPH
gust
MPH
rain 1hr
in
rain 24hr
in
rain mn
in
humidity
%
barometer
mb
20180218175721 40 0 5.0 7.0 0.00 0.00 0.00 35 1004.2
20180218175216 40 0 8.0 8.0 0.00 0.00 0.00 34 1004.0
20180218174711 40 0 1.0 5.0 0.00 0.00 0.00 35 1004.0
20180218174206 40 0 4.0 10.0 0.00 0.00 0.00 36 1003.8
20180218173701 40 85 2.0 3.0 0.00 0.00 0.00 36 1004.0
20180218173155 40 315 2.0 4.0 0.00 0.00 0.00 36 1003.8
20180218172650 40 315 4.0 6.0 0.00 0.00 0.00 36 1003.7
20180218172145 40 315 1.0 3.0 0.00 0.00 0.00 39 1003.9
20180218171640 39 315 1.0 2.0 0.00 0.00 0.00 40 1003.9
20180218171135 39 270 4.0 5.0 0.00 0.00 0.00 40 1003.8
20180218170629 39 270 2.0 5.0 0.00 0.00 0.00 41 1003.8
20180218170124 38 270 4.0 4.0 0.00 0.00 0.00 42 1003.7
20180218165619 37 270 2.0 3.0 0.00 0.00 0.00 42 1003.7
20180218165114 37 270 1.0 3.0 0.00 0.00 0.00 42 1004.0
20180218164609 36 270 1.0 1.0 0.00 0.00 0.00 43 1004.0
20180218164103 36 270 3.0 3.0 0.00 0.00 0.00 43 1003.9
20180218163558 36 270 1.0 2.0 0.00 0.00 0.00 43 1003.6
20180218163053 36 270 0.0 0.0 0.00 0.00 0.00 43 1003.6
20180218162548 35 270 0.0 1.0 0.00 0.00 0.00 42 1003.4
20180218162043 35 270 1.0 2.0 0.00 0.00 0.00 42 1003.5
20180218161538 35 270 1.0 2.0 0.00 0.00 0.00 41 1003.2
20180218161032 35 270 1.0 3.0 0.00 0.00 0.00 42 1003.1
20180218160527 35 270 0.0 1.0 0.00 0.00 0.00 42 1003.2
20180218160022 35 270 1.0 1.0 0.00 0.00 0.00 41 1003.1
20180218155517 35 270 0.0 1.0 0.00 0.00 0.00 41 1003.1
20180218155012 35 270 0.0 2.0 0.00 0.00 0.00 42 1003.1
20180218154506 35 270 1.0 2.0 0.00 0.00 0.00 40 1003.2
20180218154001 35 270 1.0 2.0 0.00 0.00 0.00 40 1003.2
20180218153456 35 270 2.0 2.0 0.00 0.00 0.00 40 1002.9
20180218152952 35 270 0.0 2.0 0.00 0.00 0.00 40 1003.1
20180218152446 35 270 0.0 3.0 0.00 0.00 0.00 42 1003.0
20180218151941 34 270 3.0 6.0 0.00 0.00 0.00 43 1003.0
20180218151435 33 315 4.0 5.0 0.00 0.00 0.00 45 1003.0
20180218150930 33 315 4.0 7.0 0.00 0.00 0.00 44 1003.2
20180218150425 33 315 4.0 6.0 0.00 0.00 0.00 45 1003.0
20180218145920 34 315 4.0 5.0 0.00 0.00 0.00 42 1002.9
20180218145415 35 315 3.0 3.0 0.00 0.00 0.00 39 1002.9
20180218144909 36 315 3.0 4.0 0.00 0.00 0.00 38 1002.8
20180218144404 37 315 2.0 5.0 0.00 0.00 0.00 35 1002.3
20180218143859 38 315 2.0 6.0 0.00 0.00 0.00 33 1002.4
20180218143354 39 315 3.0 6.0 0.00 0.00 0.00 30 1002.4
20180218142849 39 315 5.0 14.0 0.00 0.00 0.00 29 1002.3
20180218142343 39 315 5.0 11.0 0.00 0.00 0.00 30 1002.3
20180218141838 39 315 3.0 11.0 0.00 0.00 0.00 30 1002.4
20180218141334 39 315 6.0 11.0 0.00 0.00 0.00 29 1002.3
20180218140828 39 315 6.0 9.0 0.00 0.00 0.00 29 1002.4
20180218140323 39 315 13.0 13.0 0.00 0.00 0.00 29 1002.5
20180218135818 40 315 7.0 10.0 0.00 0.00 0.00 30 1002.4
20180218135312 40 315 7.0 16.0 0.00 0.00 0.00 30 1002.5
20180218134807 39 315 7.0 9.0 0.00 0.00 0.00 31 1002.2
20180218134302 40 315 8.0 12.0 0.00 0.00 0.00 31 1002.4
20180218133757 40 315 5.0 9.0 0.00 0.00 0.00 30 1002.3
20180218133252 40 315 7.0 10.0 0.00 0.00 0.00 30 1002.2
20180218132747 40 315 8.0 13.0 0.00 0.00 0.00 29 1002.1
20180218132242 40 315 8.0 11.0 0.00 0.00 0.00 29 1002.0
20180218131736 40 315 10.0 12.0 0.00 0.00 0.00 29 1002.0
20180218131231 40 315 9.0 10.0 0.00 0.00 0.00 30 1002.2
20180218130726 40 315 6.0 10.0 0.00 0.00 0.00 30 1002.1
20180218130221 41 315 6.0 10.0 0.00 0.00 0.00 30 1001.9
20180218125715 41 315 7.0 8.0 0.00 0.00 0.00 30 1001.9
20180218125210 41 315 7.0 12.0 0.00 0.00 0.00 29 1001.9
20180218124705 41 315 7.0 10.0 0.00 0.00 0.00 29 1001.9
20180218124200 41 315 6.0 8.0 0.00 0.00 0.00 30 1001.7
20180218123655 41 315 3.0 9.0 0.00 0.00 0.00 30 1001.6
20180218123150 41 315 3.0 7.0 0.00 0.00 0.00 31 1001.8
20180218122644 41 315 6.0 7.0 0.00 0.00 0.00 31 1001.6
20180218122139 41 315 8.0 9.0 0.00 0.00 0.00 32 1001.7
20180218121634 40 315 2.0 9.0 0.00 0.00 0.00 33 1001.4
20180218121129 40 315 2.0 6.0 0.00 0.00 0.00 33 1001.2
20180218120624 41 315 8.0 8.0 0.00 0.00 0.00 32 1001.1
20180218120119 41 315 2.0 5.0 0.00 0.00 0.00 33 1001.8
20180218115613 41 315 3.0 10.0 0.00 0.00 0.00 33 1001.6
20180218115108 41 315 2.0 10.0 0.00 0.00 0.00 33 1001.5
20180218114603 41 315 7.0 10.0 0.00 0.00 0.00 34 1001.4
20180218114058 40 315 3.0 6.0 0.00 0.00 0.00 35 1001.5
20180218113553 40 315 4.0 5.0 0.00 0.00 0.00 34 1001.4
20180218113047 40 315 4.0 6.0 0.00 0.00 0.00 34 1001.4
20180218112037 40 315 1.0 6.0 0.00 0.00 0.00 35 1001.3
20180218111532 40 315 2.0 8.0 0.00 0.00 0.00 35 1001.4
20180218111027 40 315 5.0 12.0 0.00 0.00 0.00 35 1001.5
20180218110521 40 315 4.0 8.0 0.00 0.00 0.00 35 1001.3
20180218110016 40 315 5.0 9.0 0.00 0.00 0.00 34 1001.2
20180218105511 41 315 7.0 10.0 0.00 0.00 0.00 34 1001.1
20180218105008 41 315 6.0 9.0 0.00 0.00 0.00 34 1001.3
20180218104501 41 315 4.0 6.0 0.00 0.00 0.00 35 1001.5
20180218103955 41 315 3.0 6.0 0.00 0.00 0.00 35 1001.5
20180218103450 41 315 2.0 6.0 0.00 0.00 0.00 35 1001.5
20180218102945 41 315 3.0 7.0 0.00 0.00 0.00 35 1001.5
20180218102440 42 315 2.0 3.0 0.00 0.00 0.00 35 1001.7
20180218101935 42 315 0.0 2.0 0.00 0.00 0.00 35 1001.8
20180218101430 42 315 1.0 2.0 0.00 0.00 0.00 35 1001.4
20180218100924 42 315 2.0 4.0 0.00 0.00 0.00 35 1001.5
20180218100419 42 315 4.0 5.0 0.00 0.00 0.00 36 1001.6
20180218095914 41 315 4.0 5.0 0.00 0.00 0.00 37 1001.5
20180218095409 41 315 3.0 4.0 0.00 0.00 0.00 37 1001.6
20180218094904 40 315 2.0 2.0 0.00 0.00 0.00 38 1001.6
20180218094358 41 315 1.0 2.0 0.00 0.00 0.00 37 1001.7
20180218093853 41 315 3.0 5.0 0.00 0.00 0.00 37 1001.5
20180218093348 41 315 0.0 3.0 0.00 0.00 0.00 37 1001.4
20180218092843 41 315 0.0 2.0 0.00 0.00 0.00 37 1001.7
20180218092338 41 315 1.0 4.0 0.00 0.00 0.00 36 1001.3
20180218091832 41 315 0.0 1.0 0.00 0.00 0.00 36 1001.3
20180218091327 42 315 0.0 1.0 0.00 0.00 0.00 35 1001.3
20180218090823 42 315 2.0 2.0 0.00 0.00 0.00 35 1001.4
20180218090317 42 315 0.0 1.0 0.00 0.00 0.00 35 1001.3
20180218085812 43 315 2.0 3.0 0.00 0.00 0.00 35 1001.1
20180218085307 43 315 5.0 9.0 0.00 0.00 0.00 34 1001.1
20180218084801 43 270 1.0 15.0 0.00 0.00 0.00 34 1001.0
20180218084256 43 315 5.0 5.0 0.00 0.00 0.00 34 1000.8
20180218083751 44 315 3.0 3.0 0.00 0.00 0.00 33 1000.8
20180218083246 44 315 2.0 4.0 0.00 0.00 0.00 34 1000.9
20180218082741 44 315 5.0 7.0 0.00 0.00 0.00 33 1001.0
20180218082235 45 315 4.0 7.0 0.00 0.00 0.00 34 1001.1
20180218081731 44 315 4.0 8.0 0.00 0.00 0.00 35 1000.9
20180218081225 44 315 4.0 11.0 0.00 0.00 0.00 37 1000.9
20180218080720 44 315 9.0 21.0 0.00 0.00 0.00 38 1000.8
20180218080215 43 315 12.0 12.0 0.00 0.00 0.00 38 1000.8
20180218075711 43 315 7.0 7.0 0.00 0.00 0.00 38 1000.7
20180218075205 44 315 6.0 8.0 0.00 0.00 0.00 37 1000.7
20180218074659 44 315 6.0 6.0 0.00 0.00 0.00 36 1000.7
20180218074154 44 315 3.0 17.0 0.00 0.00 0.00 36 1000.7
20180218073649 44 315 3.0 8.0 0.00 0.00 0.00 37 1000.7
20180218073144 44 315 7.0 16.0 0.00 0.00 0.00 38 1000.9
20180218072639 43 315 8.0 9.0 0.00 0.00 0.00 38 1001.0
20180218072133 43 315 3.0 7.0 0.00 0.00 0.00 38 1001.2
20180218071628 43 315 6.0 7.0 0.00 0.00 0.00 38 1001.2
20180218071123 43 315 4.0 9.0 0.00 0.00 0.00 40 1001.1
20180218070618 43 315 11.0 12.0 0.00 0.00 0.00 41 1001.1
20180218070113 42 315 4.0 15.0 0.00 0.00 0.00 43 1001.2
20180218065607 42 315 5.0 20.0 0.00 0.00 0.00 44 1001.3
20180218065102 42 189 11.0 14.0 0.00 0.00 0.00 44 1001.4
20180218064557 42 180 10.0 17.0 0.00 0.00 0.00 43 1001.6
20180218064052 43 225 13.0 16.0 0.00 0.00 0.00 41 1001.4
20180218063548 43 225 8.0 13.0 0.00 0.00 0.00 41 1001.6
20180218063043 43 225 9.0 15.0 0.00 0.00 0.00 40 1001.6
20180218062536 43 225 13.0 16.0 0.00 0.00 0.00 41 1001.6
20180218062031 43 225 14.0 17.0 0.00 0.00 0.00 42 1001.4
20180218061526 43 225 13.0 13.0 0.00 0.00 0.00 40 1001.5
20180218061021 44 225 14.0 20.0 0.00 0.00 0.00 40 1001.7
20180218060516 44 225 10.0 15.0 0.00 0.00 0.00 39 1001.6
20180218060010 44 225 11.0 13.0 0.00 0.00 0.00 37 1001.8
20180218055505 44 225 8.0 16.0 0.00 0.00 0.00 36 1001.8
20180218055000 45 225 12.0 14.0 0.00 0.00 0.00 34 1001.6
20180218054455 44 270 6.0 15.0 0.00 0.00 0.00 34 1001.6
20180218053950 44 270 8.0 10.0 0.00 0.00 0.00 35 1001.6
20180218053444 44 270 4.0 8.0 0.00 0.00 0.00 35 1001.5
20180218052939 44 270 3.0 8.0 0.00 0.00 0.00 36 1001.5
20180218052434 44 270 2.0 4.0 0.00 0.00 0.00 36 1001.5
20180218051929 44 270 1.0 5.0 0.00 0.00 0.00 35 1001.4
20180218051424 44 270 2.0 4.0 0.00 0.00 0.00 36 1001.6
20180218050919 44 270 3.0 4.0 0.00 0.00 0.00 36 1001.5
20180218050413 44 270 4.0 8.0 0.00 0.00 0.00 37 1001.6
20180218045908 44 270 6.0 8.0 0.00 0.00 0.00 38 1001.4
20180218045403 43 270 2.0 8.0 0.00 0.00 0.00 38 1001.3
20180218044858 43 270 3.0 7.0 0.00 0.00 0.00 40 1001.4
20180218044353 44 270 2.0 6.0 0.00 0.00 0.00 40 1001.6
20180218043849 44 270 3.0 7.0 0.00 0.00 0.00 40 1001.6
20180218043342 44 270 4.0 7.0 0.00 0.00 0.00 41 1001.6
20180218042837 44 270 2.0 5.0 0.00 0.00 0.00 41 1001.7
20180218042332 44 270 4.0 7.0 0.00 0.00 0.00 41 1001.8
20180218041827 44 270 2.0 7.0 0.00 0.00 0.00 40 1001.8
20180218041322 44 270 4.0 7.0 0.00 0.00 0.00 40 1001.9
20180218040816 44 270 3.0 7.0 0.00 0.00 0.00 40 1002.0
20180218040312 44 270 1.0 5.0 0.00 0.00 0.00 41 1002.1
20180218035807 43 270 6.0 6.0 0.00 0.00 0.00 41 1002.1
20180218035301 43 270 0.0 5.0 0.00 0.00 0.00 39 1002.0
20180218034756 44 270 4.0 4.0 0.00 0.00 0.00 39 1001.9
20180218034250 44 270 1.0 3.0 0.00 0.00 0.00 38 1002.0
20180218033745 45 270 2.0 5.0 0.00 0.00 0.00 38 1002.1
20180218033240 45 270 4.0 4.0 0.00 0.00 0.00 38 1002.2
20180218032735 46 270 4.0 5.0 0.00 0.00 0.00 38 1002.3
20180218032230 46 270 6.0 6.0 0.00 0.00 0.00 38 1002.1
20180218031725 46 270 7.0 7.0 0.00 0.00 0.00 38 1002.1
20180218031220 46 270 5.0 7.0 0.00 0.00 0.00 37 1001.9
20180218030714 47 270 6.0 7.0 0.00 0.00 0.00 37 1001.8
20180218030209 47 270 6.0 10.0 0.00 0.00 0.00 36 1001.8
20180218025704 47 270 6.0 12.0 0.00 0.00 0.00 35 1001.9
20180218025159 48 270 9.0 15.0 0.00 0.00 0.00 35 1001.9
20180218024654 48 270 8.0 18.0 0.00 0.00 0.00 35 1001.8
20180218024148 48 270 6.0 10.0 0.00 0.00 0.00 35 1001.9
20180218023643 48 270 9.0 16.0 0.00 0.00 0.00 36 1001.8
20180218023138 48 315 10.0 14.0 0.00 0.00 0.00 36 1002.0
20180218022633 48 315 7.0 11.0 0.00 0.00 0.00 37 1002.0
20180218022128 49 315 8.0 10.0 0.00 0.00 0.00 36 1001.9
20180218021622 49 315 11.0 15.0 0.00 0.00 0.00 37 1002.0
20180218021117 49 315 6.0 13.0 0.00 0.00 0.00 37 1002.0
20180218020612 49 315 8.0 12.0 0.00 0.00 0.00 37 1001.8
20180218020107 49 315 11.0 12.0 0.00 0.00 0.00 38 1001.7
20180218015602 49 337 5.0 8.0 0.00 0.00 0.00 38 1001.6
20180218015056 49 337 7.0 11.0 0.00 0.00 0.00 38 1001.6
20180218014551 49 337 9.0 15.0 0.00 0.00 0.00 36 1001.6
20180218014046 50 337 15.0 15.0 0.00 0.00 0.00 36 1001.4
20180218013541 50 0 7.0 11.0 0.00 0.00 0.00 35 1001.5
20180218013036 50 0 6.0 11.0 0.00 0.00 0.00 36 1001.4
20180218012531 51 0 6.0 9.0 0.00 0.00 0.00 36 1001.4
20180218012025 51 0 5.0 10.0 0.00 0.00 0.00 35 1001.3
20180218011520 52 0 4.0 9.0 0.00 0.00 0.00 35 1001.2
20180218011015 52 0 5.0 11.0 0.00 0.00 0.00 34 1001.2
20180218010510 53 0 5.0 14.0 0.00 0.00 0.00 33 1001.4
20180218010005 53 0 7.0 15.0 0.00 0.00 0.00 33 1001.2
20180218005459 53 0 11.0 22.0 0.00 0.00 0.00 32 1001.0
20180218004954 53 315 11.0 11.0 0.00 0.00 0.00 32 1001.1
20180218004449 53 261 10.0 16.0 0.00 0.00 0.00 31 1000.8
20180218003944 53 270 8.0 13.0 0.00 0.00 0.00 30 1000.7
20180218003439 54 270 7.0 17.0 0.00 0.00 0.00 30 1000.7
20180218002934 54 279 14.0 19.0 0.00 0.00 0.00 30 1000.5
20180218002428 55 270 11.0 22.0 0.00 0.00 0.00 29 1000.6
20180218001923 55 225 17.0 20.0 0.00 0.00 0.00 29 1000.4
20180218001418 55 225 12.0 20.0 0.00 0.00 0.00 30 1000.5
20180218000913 55 270 13.0 14.0 0.00 0.00 0.00 33 1000.3
20180218000408 55 315 7.0 15.0 0.00 0.00 0.00 33 1000.4
20180217235902 56 315 15.0 20.0 0.00 0.00 0.00 31 1000.4
20180217235357 56 270 16.0 16.0 0.00 0.00 0.00 30 1000.4
20180217234852 56 315 15.0 21.0 0.00 0.00 0.00 29 1000.3
20180217234347 56 315 11.0 19.0 0.00 0.00 0.00 29 1000.2
20180217233842 56 270 13.0 20.0 0.00 0.00 0.00 29 1000.1
20180217233337 56 252 12.0 23.0 0.00 0.00 0.00 29 1000.2
20180217232831 56 270 14.0 19.0 0.00 0.00 0.00 29 1000.4
20180217232326 56 315 13.0 19.0 0.00 0.00 0.00 30 1000.5
20180217231821 56 315 13.0 17.0 0.00 0.00 0.00 31 1000.4
20180217231316 57 315 18.0 18.0 0.00 0.00 0.00 31 1000.4
20180217230811 57 270 18.0 22.0 0.00 0.00 0.00 32 1000.6
20180217230305 57 225 8.0 16.0 0.00 0.00 0.00 36 1000.6
20180217225801 57 225 8.0 12.0 0.00 0.00 0.00 38 1000.4
20180217225255 56 270 9.0 14.0 0.00 0.00 0.00 37 1000.1
20180217224750 56 315 8.0 14.0 0.00 0.00 0.00 37 1000.0
20180217224245 57 315 24.0 24.0 0.00 0.00 0.00 35 1000.3
20180217223740 58 270 18.0 21.0 0.00 0.00 0.00 34 1000.4
20180217223234 58 315 14.0 19.0 0.00 0.00 0.00 31 1000.4
20180217222729 59 270 9.0 19.0 0.00 0.00 0.00 30 999.9
20180217222224 59 315 17.0 23.0 0.00 0.00 0.00 28 1000.2
20180217221719 59 279 14.0 21.0 0.00 0.00 0.00 29 1000.0
20180217221214 58 270 13.0 18.0 0.00 0.00 0.00 31 1000.4
20180217220709 58 252 18.0 22.0 0.00 0.00 0.00 31 1000.3
20180217220203 58 270 21.0 26.0 0.00 0.00 0.00 33 1000.3
20180217215658 58 279 18.0 28.0 0.00 0.00 0.00 33 1000.4
20180217215153 58 207 10.0 18.0 0.00 0.00 0.00 34 999.8
20180217214648 58 225 14.0 26.0 0.00 0.00 0.00 33 1000.1
20180217214143 57 270 9.0 18.0 0.00 0.00 0.00 35 1000.2
20180217213637 57 270 25.0 25.0 0.00 0.00 0.00 34 1000.3
20180217213132 57 234 21.0 25.0 0.00 0.00 0.00 34 1000.5
20180217212627 57 270 10.0 16.0 0.00 0.00 0.00 35 1000.5
20180217212122 57 315 13.0 20.0 0.00 0.00 0.00 35 1000.7
20180217211617 57 270 21.0 28.0 0.00 0.00 0.00 36 1000.8
20180217211111 56 279 8.0 26.0 0.00 0.00 0.00 39 1000.6
20180217210606 56 225 13.0 18.0 0.00 0.00 0.00 40 1000.8
20180217210101 56 225 10.0 24.0 0.00 0.00 0.00 41 1000.9
20180217205556 56 270 16.0 23.0 0.00 0.00 0.00 42 1001.2
20180217205051 55 315 9.0 25.0 0.00 0.00 0.00 44 1001.3
20180217204545 55 315 6.0 11.0 0.00 0.00 0.00 47 1001.2
20180217204040 55 234 10.0 17.0 0.00 0.00 0.00 47 1000.8
20180217203535 54 270 13.0 20.0 0.00 0.00 0.00 47 999.0
20180217203030 54 180 20.0 34.0 0.00 0.00 0.00 46 998.8
20180217202525 55 184 16.0 28.0 0.00 0.00 0.00 49 999.4
20180217202020 54 225 14.0 41.0 0.00 0.00 0.00 49 998.6
20180217201514 54 180 24.0 45.0 0.00 0.00 0.00 50 1000.8
20180217201009 54 225 19.0 31.0 0.00 0.00 0.00 50 1001.2
20180217200504 54 270 24.0 27.0 0.00 0.00 0.00 51 1002.2
20180217195959 54 279 16.0 28.0 0.00 0.00 0.00 51 1002.0
20180217195454 53 270 14.0 27.0 0.00 0.00 0.00 52 1002.7
20180217194948 53 315 18.0 28.0 0.00 0.00 0.00 54 1002.7
20180217194443 53 315 24.0 29.0 0.00 0.00 0.00 54 1002.9
20180217193938 53 315 25.0 30.0 0.00 0.00 0.00 55 1003.3
20180217192923 53 315 21.0 31.0 0.00 0.00 0.00 55 1003.9
20180217192418 52 315 23.0 28.0 0.00 0.00 0.00 57 1004.0
20180217191912 52 315 16.0 25.0 0.00 0.00 0.00 57 1004.3
20180217191407 52 315 18.0 32.0 0.00 0.00 0.00 57 1004.3
20180217190902 51 180 17.0 28.0 0.00 0.00 0.00 57 1004.4
20180217190357 51 180 15.0 28.0 0.00 0.00 0.00 56 1004.6
20180217185852 51 225 26.0 29.0 0.00 0.00 0.00 55 1004.7
20180217185346 51 225 16.0 27.0 0.00 0.00 0.00 55 1005.0
20180217184841 51 207 13.0 25.0 0.00 0.00 0.00 56 1005.1
20180217184336 51 216 16.0 22.0 0.00 0.00 0.00 56 1005.1
20180217183831 51 198 17.0 31.0 0.00 0.00 0.00 57 1005.2
20180217183326 51 180 19.0 25.0 0.00 0.00 0.00 58 1005.4
20180217182821 50 180 18.0 21.0 0.00 0.00 0.00 57 1005.3
20180217182315 50 225 15.0 30.0 0.00 0.00 0.00 58 1005.4
20180217181810 50 180 17.0 27.0 0.00 0.00 0.00 59 1005.6
20180217181305 50 180 18.0 29.0 0.00 0.00 0.00 58 1005.7
20180217180800 50 180 16.0 27.0 0.00 0.00 0.00 58 1005.7
20180217180255 50 180 19.0 34.0 0.00 0.00 0.00 58 1005.7